Starlink 6354

operational
NORAD ID: 56784 Int'l Des: 2023-078 Owner: SPXS Country: US Constellation: starlink
LEOCIRCULAR

Über Starlink 6354

Beschreibung wird geladen...

Live-Position

3D-Globus wird geladen...

Nächste Überflüge

Höhenverlauf

Altitude vs Time

uPlot chart will show altitude changes over time

Zweizeiliger Elementsatz

1 56784U 23078T 25259.79833919 .00001687 00000-0 14928-3 0 9991
2 56784 70.0010 43.0059 0002877 271.4227 88.6602 14.98302097127126
Epoch: 16. Sept. 2025 • Age: 30 hours

Aktueller Status

Höhe 583.7 km
Geschwindigkeit 7.57 km/s
Subsatellitenpunkt -35.35°S, 6.2°E
Startdatum 31. Mai 2023
Alter 2.2 years
Typ internet

Technische Details

Klassifizierung Payload
Masse 305.00 kg
Trockenmasse 290.00 kg
Gesamtmasse 305.00 kg
Länge 0.20 m
Durchmesser 2.80 m
Spannweite 9.00 m
Form Box + pan
Hersteller SPXS
Bus-Typ Starlink
Phasenstatus In Orbit
Besitzer/Staat SPXS/US

Große Konstellationen

Loading constellations...